Time,TemperatureF,DewpointF,PressureIn,WindDirection,WindDirectionDegrees,WindSpeedMPH,WindSpeedGustMPH,Humidity,HourlyPrecipIn,Conditions,Clouds,dailyrainin,SoftwareType,DateUTC
2013-07-10 00:01:00,72.0,71.0,30.04,North,5,0.0,0.0,96,0.08,,,0.72,,2013-07-10 04:01:00,
2013-07-10 00:11:00,72.0,71.0,30.05,North,5,0.0,2.0,96,0.09,,,0.73,,2013-07-10 04:11:00,
2013-07-10 00:33:00,71.0,70.0,30.06,North,5,0.0,1.0,97,0.08,,,0.74,,2013-07-10 04:33:00,
2013-07-10 00:43:00,71.0,70.0,30.06,North,5,0.0,1.0,97,0.04,,,0.75,,2013-07-10 04:43:00,
2013-07-10 00:52:00,71.0,70.0,30.06,North,5,0.0,1.0,97,0.03,,,0.76,,2013-07-10 04:52:00,
2013-07-10 01:02:00,71.0,70.0,30.06,North,5,0.0,1.0,97,0.03,,,0.76,,2013-07-10 05:02:00,
2013-07-10 01:12:00,71.0,70.0,30.06,North,5,0.0,1.0,97,0.03,,,0.76,,2013-07-10 05:12:00,
2013-07-10 01:32:00,71.0,70.0,30.06,North,5,0.0,1.0,97,0.02,,,0.76,,2013-07-10 05:32:00,
2013-07-10 01:42:00,71.0,70.0,30.05,North,5,0.0,1.0,97,0.01,,,0.70,,2013-07-10 05:42:00,
2013-07-10 01:53:00,71.0,70.0,30.04,North,5,0.0,5.0,97,0.00,,,0.70,,2013-07-10 05:53:00,
2013-07-10 02:01:00,71.0,70.0,30.02,North,5,2.0,5.0,97,0.00,,,0.70,,2013-07-10 06:01:00,
2013-07-10 02:11:00,71.0,70.0,30.02,North,5,2.0,5.0,97,0.00,,,0.70,,2013-07-10 06:11:00,
2013-07-10 02:32:00,71.0,70.0,30.01,North,5,0.0,3.0,97,0.02,,,0.65,,2013-07-10 06:32:00,
2013-07-10 02:42:00,71.0,70.0,30.01,North,5,0.0,3.0,97,0.02,,,0.65,,2013-07-10 06:42:00,
2013-07-10 02:52:00,71.0,70.0,30.00,North,5,0.0,3.0,97,0.02,,,0.65,,2013-07-10 06:52:00,
2013-07-10 03:01:00,71.0,70.0,29.98,North,5,0.0,1.0,97,0.02,,,0.65,,2013-07-10 07:01:00,
2013-07-10 03:12:00,71.0,70.0,29.98,North,5,0.0,1.0,97,0.02,,,0.65,,2013-07-10 07:12:00,
2013-07-10 03:22:00,71.0,70.0,29.98,North,5,0.0,1.0,97,0.01,,,0.65,,2013-07-10 07:22:00,
2013-07-10 03:33:00,71.0,70.0,29.97,North,5,0.0,0.0,97,0.00,,,0.65,,2013-07-10 07:33:00,
2013-07-10 03:43:00,71.0,70.0,29.97,North,5,0.0,0.0,97,0.00,,,0.65,,2013-07-10 07:43:00,
2013-07-10 03:53:00,70.0,69.0,29.98,North,5,0.0,0.0,97,0.00,,,0.65,,2013-07-10 07:53:00,
2013-07-10 04:01:00,70.0,69.0,29.98,North,5,0.0,0.0,97,0.00,,,0.65,,2013-07-10 08:01:00,
2013-07-10 04:11:00,70.0,69.0,29.98,North,5,0.0,0.0,97,0.00,,,0.65,,2013-07-10 08:11:00,
2013-07-10 04:23:00,70.0,69.0,29.99,North,5,0.0,0.0,97,0.00,,,0.65,,2013-07-10 08:23:00,
2013-07-10 04:33:00,70.0,69.0,29.99,North,5,0.0,2.0,97,0.00,,,0.65,,2013-07-10 08:33:00,
2013-07-10 04:42:00,70.0,69.0,29.99,North,5,0.0,2.0,97,0.00,,,0.65,,2013-07-10 08:42:00,
2013-07-10 04:53:00,70.0,69.0,30.00,North,5,0.0,1.0,97,0.00,,,0.65,,2013-07-10 08:53:00,
2013-07-10 05:02:00,70.0,69.0,30.00,North,5,0.0,0.0,97,0.00,,,0.65,,2013-07-10 09:02:00,
2013-07-10 05:12:00,70.0,69.0,30.00,North,5,0.0,0.0,97,0.00,,,0.65,,2013-07-10 09:12:00,
2013-07-10 05:32:00,70.0,69.0,30.01,North,5,0.0,0.0,97,0.00,,,0.65,,2013-07-10 09:32:00,
2013-07-10 05:42:00,70.0,69.0,30.00,North,5,0.0,2.0,98,0.00,,,0.65,,2013-07-10 09:42:00,
2013-07-10 05:53:00,70.0,69.0,30.00,North,5,0.0,1.0,98,0.00,,,0.65,,2013-07-10 09:53:00,
2013-07-10 06:01:00,70.0,69.0,30.00,North,5,0.0,1.0,98,0.00,,,0.65,,2013-07-10 10:01:00,
2013-07-10 06:13:00,70.0,69.0,30.00,North,5,0.0,1.0,98,0.00,,,0.65,,2013-07-10 10:13:00,
2013-07-10 06:23:00,70.0,69.0,30.00,North,5,0.0,0.0,98,0.00,,,0.65,,2013-07-10 10:23:00,
2013-07-10 06:50:00,-999.0,-99.9,30.00,North,5,0.0,4.0,-999,-99.99,,,-99.99,,2013-07-10 10:50:00,
2013-07-10 07:00:00,-999.0,-99.9,30.00,North,5,0.0,2.0,-999,-99.99,,,-99.99,,2013-07-10 11:00:00,
2013-07-10 07:11:00,70.0,69.0,29.99,North,5,0.0,2.0,98,0.00,,,0.65,,2013-07-10 11:11:00,
2013-07-10 07:23:00,70.0,69.0,29.99,North,5,0.0,1.0,98,0.00,,,0.65,,2013-07-10 11:23:00,
2013-07-10 07:43:00,71.0,70.0,30.00,North,5,0.0,1.0,98,0.00,,,0.65,,2013-07-10 11:43:00,
2013-07-10 07:52:00,71.0,70.0,29.99,North,5,0.0,2.0,98,0.00,,,0.65,,2013-07-10 11:52:00,
2013-07-10 08:02:00,71.0,70.0,29.99,North,5,0.0,2.0,98,0.00,,,0.65,,2013-07-10 12:02:00,
2013-07-10 08:11:00,71.0,70.0,30.00,North,5,0.0,1.0,98,0.00,,,0.65,,2013-07-10 12:11:00,
2013-07-10 08:22:00,71.0,70.0,30.00,North,5,0.0,0.0,98,0.00,,,0.65,,2013-07-10 12:22:00,
2013-07-10 08:33:00,71.0,70.0,30.00,North,5,0.0,0.0,98,0.00,,,0.65,,2013-07-10 12:33:00,
2013-07-10 08:43:00,71.0,70.0,30.00,North,5,0.0,2.0,98,0.00,,,0.65,,2013-07-10 12:43:00,
2013-07-10 08:53:00,72.0,71.0,30.01,North,5,0.0,2.0,98,0.00,,,0.65,,2013-07-10 12:53:00,
2013-07-10 09:11:00,72.0,71.0,30.01,North,5,0.0,2.0,98,0.00,,,0.65,,2013-07-10 13:11:00,
2013-07-10 09:22:00,72.0,71.0,30.01,North,5,0.0,4.0,98,0.00,,,0.65,,2013-07-10 13:22:00,
2013-07-10 09:32:00,72.0,71.0,30.01,North,5,0.0,4.0,98,0.00,,,0.65,,2013-07-10 13:32:00,
2013-07-10 09:43:00,72.0,71.0,30.01,North,5,2.0,4.0,97,0.00,,,0.65,,2013-07-10 13:43:00,
2013-07-10 09:52:00,73.0,72.0,30.01,North,5,0.0,4.0,97,0.00,,,0.65,,2013-07-10 13:52:00,
2013-07-10 10:01:00,73.0,72.0,30.01,North,5,0.0,3.0,97,0.00,,,0.65,,2013-07-10 14:01:00,
2013-07-10 10:11:00,73.0,72.0,30.01,North,5,0.0,3.0,97,0.00,,,0.65,,2013-07-10 14:11:00,
2013-07-10 10:43:00,74.0,72.0,30.01,North,5,0.0,3.0,94,0.00,,,0.65,,2013-07-10 14:43:00,
2013-07-10 10:53:00,74.0,72.0,30.01,North,5,1.0,4.0,94,0.00,,,0.65,,2013-07-10 14:53:00,
2013-07-10 11:11:00,74.0,72.0,30.01,North,5,0.0,6.0,93,0.00,,,0.65,,2013-07-10 15:11:00,
2013-07-10 11:34:00,74.0,72.0,30.01,North,5,0.0,4.0,93,0.00,,,0.65,,2013-07-10 15:34:00,
2013-07-10 11:42:00,74.0,72.0,30.01,North,5,1.0,4.0,93,0.00,,,0.65,,2013-07-10 15:42:00,
2013-07-10 11:52:00,74.0,72.0,30.01,North,5,1.0,4.0,92,0.00,,,0.65,,2013-07-10 15:52:00,
2013-07-10 12:01:00,74.0,72.0,30.01,North,5,1.0,4.0,92,0.00,,,0.65,,2013-07-10 16:01:00,
2013-07-10 12:11:00,74.0,72.0,30.01,North,5,1.0,6.0,92,0.00,,,0.65,,2013-07-10 16:11:00,
2013-07-10 12:22:00,75.0,73.0,30.01,North,5,2.0,7.0,92,0.00,,,0.65,,2013-07-10 16:22:00,
2013-07-10 12:33:00,76.0,73.0,30.00,North,5,1.0,7.0,91,0.00,,,0.65,,2013-07-10 16:33:00,
2013-07-10 12:44:00,76.0,73.0,30.00,North,5,1.0,7.0,91,0.00,,,0.65,,2013-07-10 16:44:00,
2013-07-10 12:53:00,76.0,72.0,30.00,North,5,3.0,6.0,88,0.00,,,0.65,,2013-07-10 16:53:00,
2013-07-10 13:02:00,76.0,72.0,30.00,North,5,3.0,6.0,88,0.00,,,0.65,,2013-07-10 17:02:00,
2013-07-10 13:11:00,78.0,74.0,29.99,North,5,0.0,3.0,87,0.00,,,0.65,,2013-07-10 17:11:00,
2013-07-10 13:23:00,79.0,74.0,29.98,North,5,3.0,5.0,85,0.00,,,0.65,,2013-07-10 17:23:00,
2013-07-10 13:32:00,80.0,74.0,29.98,North,5,2.0,4.0,82,0.00,,,0.65,,2013-07-10 17:32:00,
2013-07-10 13:43:00,80.0,74.0,29.98,North,5,2.0,4.0,82,0.00,,,0.65,,2013-07-10 17:43:00,
2013-07-10 13:53:00,81.0,74.0,29.98,North,5,2.0,4.0,80,0.00,,,0.65,,2013-07-10 17:53:00,
2013-07-10 14:02:00,81.0,74.0,29.98,North,5,2.0,4.0,80,0.00,,,0.65,,2013-07-10 18:02:00,
2013-07-10 14:11:00,81.0,74.0,29.96,North,5,1.0,4.0,79,0.00,,,0.65,,2013-07-10 18:11:00,
2013-07-10 14:32:00,82.0,75.0,29.95,North,5,2.0,5.0,79,0.00,,,0.65,,2013-07-10 18:32:00,
2013-07-10 14:44:00,83.0,76.0,29.95,North,5,1.0,5.0,79,0.00,,,0.65,,2013-07-10 18:44:00,
2013-07-10 14:53:00,83.0,75.0,29.94,North,5,1.0,7.0,77,0.00,,,0.65,,2013-07-10 18:53:00,
2013-07-10 15:11:00,84.0,76.0,29.93,North,5,1.0,7.0,76,0.00,,,0.65,,2013-07-10 19:11:00,
2013-07-10 15:22:00,83.0,75.0,29.93,North,5,2.0,5.0,76,0.00,,,0.65,,2013-07-10 19:22:00,
2013-07-10 15:32:00,83.0,74.0,29.93,North,5,0.0,4.0,74,0.00,,,0.65,,2013-07-10 19:32:00,
2013-07-10 15:42:00,83.0,74.0,29.93,North,5,0.0,4.0,74,0.00,,,0.65,,2013-07-10 19:42:00,
2013-07-10 15:53:00,84.0,74.0,29.92,North,5,1.0,5.0,73,0.00,,,0.65,,2013-07-10 19:53:00,
2013-07-10 16:01:00,84.0,74.0,29.92,North,5,1.0,5.0,73,0.00,,,0.65,,2013-07-10 20:01:00,
2013-07-10 16:11:00,85.0,75.0,29.91,North,5,1.0,6.0,72,0.00,,,0.65,,2013-07-10 20:11:00,
2013-07-10 16:22:00,85.0,75.0,29.91,North,5,0.0,5.0,73,0.00,,,0.65,,2013-07-10 20:22:00,
2013-07-10 16:32:00,85.0,75.0,29.91,North,5,0.0,5.0,73,0.00,,,0.65,,2013-07-10 20:32:00,
2013-07-10 16:43:00,86.0,75.0,29.91,North,5,3.0,6.0,71,0.00,,,0.65,,2013-07-10 20:43:00,
2013-07-10 16:52:00,87.0,76.0,29.91,North,5,1.0,6.0,70,0.00,,,0.65,,2013-07-10 20:52:00,
2013-07-10 17:01:00,87.0,75.0,29.90,North,5,0.0,7.0,67,0.00,,,0.65,,2013-07-10 21:01:00,
2013-07-10 17:11:00,87.0,75.0,29.90,North,5,0.0,7.0,67,0.00,,,0.65,,2013-07-10 21:11:00,
2013-07-10 17:22:00,88.0,75.0,29.89,North,5,1.0,6.0,65,0.00,,,0.65,,2013-07-10 21:22:00,
2013-07-10 17:32:00,87.0,74.0,29.89,North,5,3.0,7.0,66,0.00,,,0.65,,2013-07-10 21:32:00,
2013-07-10 17:42:00,87.0,74.0,29.89,North,5,3.0,7.0,66,0.00,,,0.65,,2013-07-10 21:42:00,
2013-07-10 17:52:00,86.0,76.0,29.89,North,5,0.0,3.0,73,0.00,,,0.65,,2013-07-10 21:52:00,
2013-07-10 18:01:00,86.0,76.0,29.89,North,5,0.0,3.0,73,0.00,,,0.65,,2013-07-10 22:01:00,
2013-07-10 18:11:00,85.0,77.0,29.89,North,5,0.0,1.0,76,0.00,,,0.65,,2013-07-10 22:11:00,
2013-07-10 18:21:00,83.0,76.0,29.89,North,5,0.0,0.0,79,0.00,,,0.65,,2013-07-10 22:21:00,
2013-07-10 18:33:00,83.0,76.0,29.89,North,5,0.0,0.0,79,0.00,,,0.65,,2013-07-10 22:33:00,
2013-07-10 18:43:00,82.0,76.0,29.89,North,5,0.0,1.0,81,0.00,,,0.65,,2013-07-10 22:43:00,
2013-07-10 18:53:00,81.0,76.0,29.89,North,5,0.0,0.0,84,0.00,,,0.65,,2013-07-10 22:53:00,
2013-07-10 19:01:00,80.0,75.0,29.89,North,5,0.0,0.0,86,0.00,,,0.65,,2013-07-10 23:01:00,
2013-07-10 19:11:00,80.0,75.0,29.89,North,5,0.0,0.0,86,0.00,,,0.65,,2013-07-10 23:11:00,
2013-07-10 19:22:00,80.0,76.0,29.90,North,5,0.0,1.0,88,0.00,,,0.65,,2013-07-10 23:22:00,
2013-07-10 19:32:00,79.0,75.0,29.89,North,5,0.0,6.0,88,0.00,,,0.65,,2013-07-10 23:32:00,
2013-07-10 19:43:00,79.0,75.0,29.89,North,5,0.0,6.0,88,0.00,,,0.65,,2013-07-10 23:43:00,
2013-07-10 19:52:00,79.0,75.0,29.90,North,5,0.0,1.0,89,0.00,,,0.65,,2013-07-10 23:52:00,
2013-07-10 20:01:00,78.0,75.0,29.90,North,5,0.0,2.0,90,0.00,,,0.65,,2013-07-11 00:01:00,
2013-07-10 20:11:00,78.0,75.0,29.90,North,5,0.0,2.0,90,0.00,,,0.65,,2013-07-11 00:11:00,
2013-07-10 20:22:00,78.0,75.0,29.90,North,5,0.0,0.0,91,0.01,,,0.66,,2013-07-11 00:22:00,
2013-07-10 20:32:00,78.0,75.0,29.90,North,5,0.0,0.0,91,0.01,,,0.66,,2013-07-11 00:32:00,
2013-07-10 20:42:00,77.0,74.0,29.91,North,5,0.0,1.0,91,0.02,,,0.67,,2013-07-11 00:42:00,
2013-07-10 20:52:00,77.0,74.0,29.91,North,5,0.0,1.0,91,0.02,,,0.67,,2013-07-11 00:52:00,
2013-07-10 21:01:00,76.0,74.0,29.92,North,5,0.0,4.0,92,0.02,,,0.67,,2013-07-11 01:01:00,
2013-07-10 21:11:00,76.0,74.0,29.91,North,5,0.0,1.0,93,0.02,,,0.67,,2013-07-11 01:11:00,
2013-07-10 21:22:00,76.0,74.0,29.91,North,5,0.0,1.0,93,0.02,,,0.67,,2013-07-11 01:22:00,
2013-07-10 21:32:00,75.0,73.0,29.92,North,5,0.0,0.0,94,0.00,,,0.19,,2013-07-11 01:32:00,
2013-07-10 21:43:00,75.0,73.0,29.92,North,5,0.0,0.0,94,0.00,,,0.19,,2013-07-11 01:43:00,
2013-07-10 21:52:00,75.0,73.0,29.91,North,5,0.0,0.0,94,0.01,,,0.20,,2013-07-11 01:52:00,
2013-07-10 22:02:00,75.0,73.0,29.91,North,5,0.0,0.0,95,0.01,,,0.20,,2013-07-11 02:02:00,
2013-07-10 22:11:00,75.0,73.0,29.91,North,5,0.0,0.0,95,0.01,,,0.20,,2013-07-11 02:11:00,
2013-07-10 22:32:00,75.0,73.0,29.91,North,5,0.0,0.0,95,0.01,,,0.17,,2013-07-11 02:32:00,
2013-07-10 22:43:00,74.0,72.0,29.93,North,5,0.0,0.0,95,0.01,,,0.17,,2013-07-11 02:43:00,
2013-07-10 23:02:00,74.0,72.0,29.93,North,5,0.0,0.0,95,0.00,,,0.17,,2013-07-11 03:02:00,
2013-07-10 23:11:00,73.0,71.0,29.93,North,5,0.0,0.0,94,0.00,,,0.17,,2013-07-11 03:11:00,
2013-07-10 23:33:00,73.0,71.0,29.93,North,5,0.0,0.0,94,0.00,,,0.15,,2013-07-11 03:33:00,
2013-07-10 23:42:00,72.0,70.0,29.93,North,5,0.0,0.0,95,0.00,,,0.15,,2013-07-11 03:42:00,
2013-07-10 23:53:00,72.0,70.0,29.92,North,5,0.0,1.0,95,0.00,,,0.15,,2013-07-11 03:53:00,